Charlotte, NC

9:28 AM EDT on April 27, 2017 (GMT -0400)
Charlotte-Douglas International

Weather History for KCLT - August, 2013

Change the Weather History Date:

Monday, August 12, 2013

  Actual Average Record
Temperature  
Mean Temperature 81 °F 78 °F  
Max Temperature 92 °F 88 °F 100 °F (1925)
Min Temperature 69 °F 68 °F 57 °F (1890)
Degree Days  
Heating Degree Days 0 0  
Month to date heating degree days 0 0  
Since 1 June heating degree days 0 3  
Since 1 July heating degree days 0 0  
Cooling Degree Days 16 13  
Month to date cooling degree days 169 156  
Year to date cooling degree days 1101 1050  
Since 1 June cooling degree days 932 887  
Growing Degree Days 30 (Base 50)    
Moisture  
Dew Point 72 °F    
Average Humidity 76    
Maximum Humidity 100    
Minimum Humidity 52    
Precipitation  
Precipitation T in 0.13 in 2.25 in (2004)
Month to date precipitation 0.56 1.65  
Year to date precipitation 34.08 26.03  
Snow  
Snow 0.00 in 0.00 in 0.00 in ()
Month to date snowfall 0.0 0.0  
Since 1 June snowfall 0.0 0.0  
Since 1 July snowfall 0.0 0.0  
Snow Depth 0.00 in    
Sea Level Pressure  
Sea Level Pressure 30.03 in    
Wind  
Wind Speed 2 mph (West)    
Max Wind Speed 10 mph    
Max Gust Speed 14 mph    
Visibility 10 miles    
Events      
T = Trace of Precipitation, MM = Missing Value Source: NWS Daily Summary

Daily Weather History Graph

Daily Weather History Graph

Search for Another Location

Airport or City:

Trip Planner

Search our weather history database for the weather conditions in past years. The results will help you decide how hot, cold, wet, or windy it might be!

Date:

Astronomy

Aug. 12, 2013 Rise Set
Actual Time 6:41 AM EDT 8:15 PM EDT
Civil Twilight 6:14 AM EDT 8:42 PM EDT
Nautical Twilight 5:41 AM EDT 9:15 PM EDT
Astronomical Twilight 5:07 AM EDT 9:49 PM EDT
Moon 12:15 PM EDT (8/12) 11:23 PM EDT (8/12)
Length of Visible Light 14h 28m
Length of Day
13h 34m
Waxing Crescent, 31% of the Moon is Illuminated
Aug 12
Waxing Crescent
Aug 14
First Quarter
Aug 20
Full
Aug 28
Last Quarter
Sep 5
New

Hourly Weather History & Observations

Time (EDT) Temp. Heat Index Dew Point Humidity Pressure Visibility Wind Dir Wind Speed Gust Speed Precip Events Conditions
12:52 AM 75.0 °F - 72.0 °F 90% 30.06 in 10.0 mi Calm Calm - N/A   Partly Cloudy
1:52 AM 75.0 °F - 72.0 °F 90% 30.06 in 10.0 mi West 3.5 mph - N/A   Partly Cloudy
2:52 AM 73.9 °F - 72.0 °F 93% 30.04 in 10.0 mi Calm Calm - N/A   Partly Cloudy
3:52 AM 73.0 °F - 72.0 °F 96% 30.04 in 10.0 mi Calm Calm - N/A   Scattered Clouds
4:52 AM 71.1 °F - 71.1 °F 100% 30.05 in 10.0 mi Calm Calm - N/A   Scattered Clouds
5:52 AM 71.1 °F - 70.0 °F 96% 30.05 in 10.0 mi Calm Calm - N/A   Overcast
6:52 AM 70.0 °F - 70.0 °F 100% 30.06 in 7.0 mi North 3.5 mph - N/A   Partly Cloudy
7:52 AM 75.9 °F - 73.9 °F 94% 30.07 in 10.0 mi Calm Calm - N/A   Partly Cloudy
8:52 AM 80.1 °F 84.2 °F 73.0 °F 79% 30.07 in 10.0 mi Calm Calm - N/A   Partly Cloudy
9:52 AM 84.0 °F 89.0 °F 71.1 °F 65% 30.06 in 10.0 mi Calm Calm - N/A   Partly Cloudy
10:52 AM 86.0 °F 90.7 °F 70.0 °F 59% 30.06 in 10.0 mi NNW 4.6 mph - N/A   Partly Cloudy
11:52 AM 89.1 °F 96.0 °F 72.0 °F 57% 30.06 in 10.0 mi NW 4.6 mph - N/A   Scattered Clouds
12:52 PM 89.1 °F 94.1 °F 70.0 °F 53% 30.05 in 10.0 mi WSW 5.8 mph - N/A   Scattered Clouds
1:52 PM 90.0 °F 95.4 °F 70.0 °F 52% 30.03 in 10.0 mi WSW 4.6 mph - N/A   Scattered Clouds
2:52 PM 91.0 °F 97.6 °F 71.1 °F 52% 30.00 in 10.0 mi West 4.6 mph - N/A   Scattered Clouds
3:52 PM 90.0 °F 96.4 °F 71.1 °F 54% 29.97 in 10.0 mi Variable 4.6 mph - N/A   Scattered Clouds
4:52 PM 89.1 °F 95.0 °F 71.1 °F 55% 29.97 in 10.0 mi Variable 4.6 mph - N/A   Scattered Clouds
5:52 PM 88.0 °F 95.6 °F 73.0 °F 61% 29.98 in 10.0 mi WSW 6.9 mph - N/A   Scattered Clouds
6:52 PM 86.0 °F 93.8 °F 73.9 °F 67% 29.96 in 10.0 mi Calm Calm - N/A   Mostly Cloudy
7:52 PM 82.9 °F 88.8 °F 73.0 °F 72% 29.95 in 10.0 mi Calm Calm - 0.00 in   Mostly Cloudy
8:52 PM 79.0 °F - 72.0 °F 79% 29.97 in 10.0 mi WNW 4.6 mph - N/A   Mostly Cloudy
9:52 PM 78.1 °F - 72.0 °F 81% 29.98 in 10.0 mi Calm Calm - N/A   Scattered Clouds
10:52 PM 75.9 °F - 72.0 °F 87% 29.98 in 10.0 mi Calm Calm - N/A   Mostly Cloudy
11:52 PM 77.0 °F - 73.0 °F 88% 29.96 in 10.0 mi SSW 4.6 mph - N/A   Mostly Cloudy